Location: Costa Mesa
(33.6411°N, 117.9187°W)
Time: 03:41:46
(UTC+00:00)

Cosmos 1939 Rocket - Pass Details

Date: 10 September 2024
Orbit: 510 x 550 km, 97.5° (Epoch: 10 October)

Event Time Altitude Azimuth Distance (km) Brightness Sun altitude
Rises 12:45:48 0° 3° (N) 2,735 6.6 -10.3°
Reaches altitude 10° 12:48:01 10° 356° (N) 1,839 5.6 -9.9°
Maximum altitude 12:51:46 42° 286° (WNW) 801 3.2 -9.1°
Drops below altitude 10° 12:55:31 10° 215° (SW) 1,825 5.1 -8.4°
Sets 12:57:42 0° 208° (SSW) 2,712 6.0 -7.9°
